Powrót do katalogu

ONEWEB-0596

AktywnyŁącznośćPO
NORAD 54662·PAYLOAD·🇬🇧 United Kingdom

Wystrzelony Dec 8, 2022 z Cape Canaveral Space Force Station

Loading…

Następne Przeloty (najbliższe 24 godziny)

TLE

ŚwieżeSource: CelesTrak SupGP

Epoka: Sep 14, 2026, 13:49 UTC

1 54662C 22166W   26257.57588380 -.00002523  00000+0 -61164-2 0  2576
2 54662  87.9271 226.1898 0002040  82.5373  30.1494 13.21828205    13

Śledź ONEWEB-0596 w czasie rzeczywistym z AllMySat

Download on the App Store